Location: *
(41.7492°S, 135.4150°W)
Time: 02:50:45
(UTC+00:00)

Envisat - Visible Passes

Search period start: 19 January 2022 00:00
Search period end: 29 January 2022 00:00
Orbit: 764 x 766 km, 98.2° (Epoch: 18 January)

Date Brightness Start Highest point End Pass type
(mag) Time Alt. Az. Time Alt. Az. Time Alt. Az.
19 Jan 4.4 12:27:23 10° NE 12:32:11 42° ESE 12:37:01 10° S visible
20 Jan 5.6 11:51:54 10° ENE 11:55:38 21° ESE 11:59:23 10° SSE visible
21 Jan 3.3 12:52:16 10° NNE 12:57:21 73° ESE 13:02:31 10° S visible
22 Jan 4.8 12:16:06 10° NE 12:20:40 34° ESE 12:25:17 10° S visible
23 Jan 5.8 11:41:00 10° E 11:44:10 17° ESE 11:47:22 10° SSE visible
23 Jan 3.0 13:17:33 10° N 13:22:38 65° W 13:27:46 10° SSW visible
24 Jan 3.7 12:40:48 10° NNE 12:45:48 58° ESE 12:50:52 10° S visible
25 Jan 5.2 12:04:55 10° ENE 12:09:10 27° ESE 12:13:28 10° S visible
26 Jan 6.0 11:30:20 10° E 11:32:45 13° ESE 11:35:09 10° SSE visible
26 Jan 3.0 13:05:55 10° NNE 13:11:01 83° WNW 13:16:13 10° SSW visible
27 Jan 4.2 12:29:24 10° NE 12:34:15 45° ESE 12:39:10 10° S visible
28 Jan 5.5 11:53:49 10° ENE 11:57:42 22° ESE 12:01:35 10° SSE visible
28 Jan 3.3 13:31:26 10° N 13:36:21 47° W 13:41:20 10° SSW visible
